Temp
58 58 58 59 60 46 53 56 48 51 54 50 42 45 45 44 43 44 41 48 48 54 58 64 65 64 64 65 65 65 64 65 65 65 66 70 77 78 78 79 79 79 80 81 82 81 81 81 80 80 78 79 78 77 77 76 76 77 76 76 76 77 76
59 61 58 57 59 58 51 48 48 56 57 52 46 42 35 33 36 40 42 42 43 43 45 61 60 60 61 62 63 64 63 64 63 64 65 67 68 76 79 79 79 80 81 81 82 82 82 82 81 80 79 80 79 79 78 77 77 76 77 77 77 77 76
54 59 56 54 59 61 52 53 60 52 45 48 43 43 38 37 37 38 42 43 44 45 47 55 55 56 58 59 61 62 61 62 62 63 64 65 67 71 78 79 79 80 80 81 81 82 83 82 81 81 81 81 81 80 80 80 78 78 78 79 79 78 78
52 53 53 40 46 56 58 56 52 54 47 42 42 47 37 45 35 36 39 38 40 49 52 56 56 57 58 59 59 60 61 62 62 63 63 64 64 65 73 79 80 80 81 82 83 83 83 82 82 82 82 82 81 81 80 79 80 79 79 78 78 77 78
50 43 46 43 44 42 47 49 45 47 46 50 49 45 45 43 34 33 34 32 42 51 59 59 59 59 59 59 59 60 62 62 63 63 63 63 63 64 66 76 79 80 81 82 83 83 84 83 83 83 83 82 82 82 81 81 79 79 79 79 79 78 78
40 43 50 51 51 51 48 45 43 44 42 39 40 41 44 43 36 31 34 33 44 55 63 60 61 62 61 61 60 60 61 62 62 62 63 63 63 63 65 66 74 80 79 81 82 83 83 83 82 82 82 82 82 81 82 81 81 80 80 79 78 78 78
42 47 51 52 53 52 52 51 46 48 46 41 32 33 41 39 41 43 39 37 40 55 59 60 62 62 62 61 61 60 62 62 62 62 63 64 63 64 64 66 66 67 75 80 81 80 80 81 81 82 81 82 82 82 82 82 81 80 81 81 80 79 78
41 49 49 51 53 50 46 49 50 49 44 45 43 36 43 36 38 36 34 34 41 54 59 60 61 62 63 62 61 60 61 62 63 63 62 62 63 63 65 65 65 67 67 67 69 75 78 79 79 81 82 81 82 82 83 82 81 82 81 81 81 79 79
34 36 41 44 46 49 43 42 46 47 48 48 45 43 40 37 38 41 31 32 39 52 58 59 59 60 59 59 60 60 59 61 62 63 63 63 62 63 63 63 64 65 65 65 66 67 68 73 80 80 81 79 79 81 83 83 82 83 82 82 81 81 80
28 30 30 29 33 38 41 44 45 47 47 45 42 37 36 30 38 37 32 35 40 50 55 55 55 56 55 57 58 60 60 60 61 62 63 62 63 62 62 62 64 63 64 65 65 65 67 69 71 75 79 82 78 75 78 81 82 82 83 83 82 81 80
26 30 34 40 44 38 36 41 42 43 45 46 42 37 34 34 36 38 38 42 42 48 53 52 52 52 52 53 55 56 57 59 61 61 61 61 61 62 62 62 63 63 63 63 64 65 67 68 69 71 71 76 82 78 81 83 83 83 82 82 81 81 81
36 36 40 41 44 38 40 39 40 42 43 42 41 38 38 39 34 34 41 40 41 45 50 52 51 51 51 52 53 55 57 57 58 60 60 61 60 60 62 61 61 61 63 63 63 65 65 67 68 69 71 72 72 76 81 83 84 84 83 82 81 80 80
39 39 40 42 41 42 41 41 40 41 41 42 41 40 43 39 37 35 39 39 41 45 50 52 51 52 52 52 52 55 57 58 58 58 58 58 59 59 60 60 60 60 61 62 63 64 65 66 66 67 69 69 70 72 73 77 85 84 83 82 81 81 80
38 39 39 42 40 40 40 40 41 41 41 41 42 42 43 44 40 40 42 42 42 47 49 53 53 54 54 54 55 54 55 56 56 57 57 57 58 59 59 60 60 60 60 61 62 63 63 64 65 66 66 67 69 69 71 72 74 82 83 81 80 80 80
35 38 40 39 40 39 38 38 40 41 41 42 42 43 44 46 42 43 44 41 41 48 51 53 55 55 54 53 52 52 52 54 55 56 56 56 57 58 59 59 60 60 60 60 61 61 63 63 64 65 65 67 68 69 70 71 72 72 78 81 81 81 80
31 34 36 38 39 39 36 36 37 39 39 39 41 40 43 42 40 40 42 40 41 46 49 52 52 52 51 50 50 50 51 52 54 54 54 56 57 57 58 59 60 60 60 60 60 60 62 63 64 64 65 65 66 67 68 70 71 74 73 77 82 80 81
28 33 35 37 37 34 33 36 40 41 42 42 44 44 45 44 44 41 39 37 43 45 49 48 48 50 50 49 49 50 50 51 52 52 53 55 56 57 58 59 59 60 60 61 61 61 62 62 63 64 65 65 64 65 67 68 70 71 72 73 77 80 81
26 32 34 36 28 25 27 39 45 45 43 43 41 42 43 43 44 42 43 43 46 46 46 46 46 47 49 50 51 52 51 49 50 52 53 54 56 57 59 59 59 60 60 61 62 62 63 64 65 65 66 65 65 67 67 68 69 69 69 71 72 77 80
27 30 30 28 23 26 37 44 45 46 46 46 44 43 42 43 44 45 44 44 44 46 47 47 48 49 51 53 52 53 53 53 51 51 52 53 55 56 57 58 60 60 60 60 61 61 62 64 65 65 65 65 65 66 67 67 69 68 69 69 71 74 77
28 26 24 18 25 35 42 44 43 46 45 43 43 41 42 43 43 43 42 44 45 46 47 48 50 50 52 54 53 53 54 54 53 52 51 52 55 55 57 58 59 59 61 61 61 61 63 63 63 64 64 65 65 64 67 67 66 67 68 69 71 72 74
27 26 22 27 33 35 36 36 39 40 36 38 37 33 37 41 43 43 42 43 44 45 47 48 49 51 51 48 49 53 54 54 55 55 53 54 54 56 58 59 59 60 62 62 63 63 63 63 63 63 63 64 64 64 65 67 65 65 67 68 69 70 71
28 28 23 17 22 16 27 37 42 44 45 44 43 37 36 41 43 44 43 42 43 44 46 47 48 50 47 44 46 51 54 55 55 55 56 56 56 56 58 59 60 61 62 63 64 64 63 63 64 63 63 63 63 63 64 66 66 64 66 67 69 69 69
27 27 21 17 15 22 30 37 41 44 44 45 43 39 34 40 42 44 44 43 43 43 44 45 47 46 41 40 45 50 53 54 55 54 55 56 56 57 57 58 59 60 61 61 63 63 63 62 63 64 63 63 62 62 63 64 65 65 66 67 67 68 69
29 28 23 19 27 23 35 38 40 44 44 44 40 29 33 41 44 44 44 43 43 44 45 46 44 42 39 42 46 51 53 54 54 54 54 54 55 56 58 59 60 60 61 60 61 61 61 62 63 64 63 62 62 62 62 63 64 64 65 66 66 68 69
31 33 27 30 32 38 41 39 42 43 44 43 30 26 37 42 42 44 44 43 44 45 44 44 41 42 45 48 50 52 53 53 54 55 55 55 56 56 57 57 59 59 59 60 60 61 61 62 64 64 63 61 61 61 62 62 62 63 65 66 66 66 67
26 28 27 29 32 34 38 40 43 44 42 29 27 36 41 40 40 43 44 44 45 45 44 44 44 46 49 51 52 51 52 52 52 53 54 55 56 57 58 58 58 58 59 59 59 60 61 62 63 64 63 61 60 61 61 61 63 65 65 65 65 66 66
32 31 29 27 20 34 43 43 42 45 36 33 39 40 40 43 41 43 43 45 45 45 44 45 46 46 48 49 50 50 50 51 51 52 52 52 53 54 54 55 57 58 57 57 58 59 61 62 62 63 63 61 60 60 59 61 64 64 65 65 66 65 65
25 27 26 27 35 38 42 41 33 39 42 41 41 40 40 42 43 42 42 43 44 45 44 44 45 46 46 47 48 49 50 50 51 52 52 53 53 54 55 56 56 57 56 56 57 58 60 61 61 62 61 60 60 60 60 62 63 64 64 65 65 65 66
29 27 31 37 37 39 41 41 38 40 43 45 43 43 41 41 41 43 43 43 44 44 45 45 45 44 45 46 48 48 49 49 50 50 51 52 52 53 53 54 56 56 55 55 56 57 59 59 61 61 61 60 60 60 61 63 62 62 63 64 64 64 65
34 37 41 40 38 38 40 43 44 44 44 44 44 43 42 42 43 43 43 43 44 45 45 44 44 45 46 45 47 47 48 49 50 51 51 51 52 52 53 53 54 55 55 56 56 55 57 59 59 60 61 61 59 60 62 63 63 63 62 63 63 64 65
35 29 34 38 40 42 43 44 44 44 44 44 44 43 43 44 44 44 44 44 44 45 45 44 44 45 46 46 46 47 47 48 48 49 49 50 51 51 51 52 54 54 53 53 54 55 55 57 59 60 60 61 61 62 62 63 63 63 63 62 62 63 64
32 35 35 37 38 39 40 40 41 43 44 44 44 46 46 46 45 45 46 45 44 44 44 45 44 45 46 46 45 46 47 47 48 48 49 49 50 51 51 52 53 52 52 52 52 53 54 56 57 58 59 60 61 62 63 63 64 63 63 63 63 63 64
35 38 42 42 41 42 43 43 42 44 45 45 45 44 44 44 44 45 45 45 45 45 45 45 45 44 45 47 46 46 47 47 47 48 48 49 49 50 50 51 53 51 52 52 53 53 54 56 57 57 58 60 61 62 63 63 63 63 62 63 63 63 64
31 34 39 39 36 35 37 39 43 44 45 44 45 44 43 44 44 44 44 45 46 46 46 45 45 44 45 46 47 46 46 47 47 48 48 49 49 50 51 52 52 52 52 52 52 53 54 56 56 57 58 60 61 63 64 64 64 62 63 63 62 63 64
33 40 43 41 43 40 43 43 43 43 44 43 42 43 44 45 45 45 44 43 44 45 46 47 46 46 45 46 47 46 46 47 48 48 48 48 49 49 50 50 50 50 51 52 53 53 54 56 56 57 58 60 61 62 62 63 63 63 62 61 61 61 63
45 46 43 41 41 42 43 43 44 44 44 43 43 44 44 44 45 45 44 44 43 44 45 46 48 47 46 47 47 46 46 47 47 48 49 49 49 50 51 50 50 50 51 52 52 53 55 56 56 57 58 59 60 61 62 62 63 62 62 60 59 60 61
44 48 45 42 43 44 45 43 43 44 45 45 42 43 44 44 44 45 43 44 45 45 44 45 47 48 47 46 46 46 45 47 48 49 50 51 52 52 52 51 51 51 52 53 53 54 54 55 55 56 57 58 60 61 61 62 63 62 61 61 60 60 61
MSLP
1012.60 1013.08 1012.76 1012.48 1012.60 1014.28 1013.36 1013.40 1014.40 1014.04 1013.64 1013.36 1015.76 1017.24 1017.28 1016.68 1015.80 1016.88 1017.40 1016.00 1016.64 1015.88 1015.20 1014.56 1014.80 1014.76 1014.64 1014.08 1014.12 1013.92 1014.00 1013.64 1013.20 1013.16 1012.92 1012.12 1010.68 1009.88 1009.84 1010.00 1010.16 1010.32 1010.36 1010.36 1010.44 1010.76 1011.12 1011.40 1011.80 1012.08 1012.32 1012.60 1013.12 1013.64 1014.16 1014.64 1014.92 1015.16 1015.48 1015.72 1015.96 1016.20 1016.48
1012.04 1012.16 1012.56 1012.36 1012.56 1013.04 1013.32 1013.76 1013.84 1013.56 1013.28 1013.36 1014.04 1016.92 1017.44 1016.32 1017.52 1018.24 1018.52 1019.64 1019.92 1017.72 1017.72 1015.44 1015.80 1015.92 1015.68 1015.44 1015.16 1015.00 1014.64 1014.12 1014.00 1013.88 1013.44 1012.84 1012.36 1010.56 1009.36 1009.20 1009.24 1009.44 1009.72 1009.96 1010.00 1010.12 1010.32 1010.64 1011.00 1011.48 1011.88 1012.12 1012.56 1012.96 1013.48 1014.12 1014.60 1015.08 1015.32 1015.52 1015.80 1016.04 1016.40
1013.48 1012.56 1012.12 1012.24 1011.92 1012.48 1013.04 1013.52 1013.00 1013.60 1015.36 1015.84 1015.88 1015.04 1019.16 1018.20 1018.36 1019.40 1019.92 1019.88 1019.40 1019.72 1019.80 1017.56 1017.48 1017.20 1016.96 1016.40 1015.84 1015.32 1015.04 1014.84 1014.76 1014.40 1013.60 1012.92 1012.08 1011.08 1009.56 1009.00 1009.04 1009.16 1009.28 1009.40 1009.56 1009.72 1009.80 1010.20 1010.52 1010.80 1011.24 1011.76 1012.28 1012.72 1013.00 1013.40 1013.96 1014.24 1014.60 1014.92 1015.28 1015.60 1015.84
1014.64 1014.04 1014.32 1016.64 1016.80 1013.00 1013.36 1013.40 1013.84 1015.24 1013.92 1014.56 1014.64 1015.24 1015.68 1015.32 1018.80 1019.88 1020.72 1019.52 1021.12 1019.00 1018.84 1018.12 1017.92 1017.64 1017.44 1017.12 1016.56 1016.28 1015.92 1015.60 1015.20 1014.68 1014.24 1013.56 1012.84 1012.08 1010.28 1009.04 1008.84 1008.80 1008.76 1008.84 1009.08 1009.36 1009.72 1010.08 1010.56 1010.80 1011.12 1011.48 1011.96 1012.28 1012.76 1013.20 1013.52 1013.88 1014.28 1014.60 1014.88 1015.36 1015.52
1014.48 1016.92 1017.48 1018.76 1018.20 1017.24 1016.20 1015.52 1017.08 1016.24 1016.68 1016.12 1015.32 1016.04 1016.24 1016.08 1017.24 1018.00 1019.28 1021.72 1021.20 1019.04 1017.64 1017.88 1017.72 1017.56 1017.40 1017.28 1017.20 1016.72 1016.20 1015.92 1015.40 1015.00 1014.48 1014.00 1013.36 1012.56 1011.56 1009.56 1008.96 1009.12 1009.12 1009.16 1009.20 1009.28 1009.48 1009.80 1010.20 1010.56 1010.88 1011.20 1011.52 1011.96 1012.48 1012.80 1013.40 1013.76 1014.16 1014.40 1014.68 1015.00 1015.24
1018.68 1018.88 1017.84 1017.68 1017.40 1017.32 1017.80 1018.08 1018.92 1018.80 1018.16 1016.20 1016.00 1017.36 1017.40 1017.88 1016.52 1018.20 1018.44 1022.36 1020.64 1019.16 1017.48 1017.76 1017.48 1017.28 1017.32 1017.12 1017.04 1016.76 1016.40 1016.04 1015.68 1015.16 1014.64 1014.24 1013.80 1013.04 1012.24 1011.56 1010.08 1009.16 1009.16 1009.32 1009.32 1009.48 1009.72 1010.04 1010.40 1010.68 1010.80 1011.08 1011.48 1011.84 1012.00 1012.44 1012.92 1013.36 1013.72 1014.08 1014.36 1014.68 1015.00
1019.00 1018.72 1018.08 1017.32 1017.12 1017.24 1017.72 1017.92 1019.08 1017.84 1018.24 1018.40 1017.48 1016.60 1017.80 1017.96 1019.16 1019.00 1018.84 1020.52 1021.84 1019.08 1018.48 1018.00 1017.60 1017.40 1017.48 1017.28 1016.96 1016.88 1016.32 1015.88 1015.56 1015.16 1014.64 1014.20 1013.96 1013.60 1013.12 1012.40 1012.00 1011.60 1010.40 1009.44 1009.36 1009.72 1010.00 1010.16 1010.44 1010.68 1011.12 1011.16 1011.36 1011.52 1011.80 1012.12 1012.60 1012.96 1013.12 1013.48 1013.80 1014.20 1014.60
1018.56 1017.76 1017.80 1017.76 1017.56 1017.56 1017.96 1018.04 1018.36 1018.40 1018.88 1019.00 1018.92 1018.52 1018.40 1018.84 1019.48 1018.12 1018.48 1020.04 1021.40 1019.44 1018.60 1018.48 1018.12 1017.80 1017.60 1017.44 1017.36 1017.24 1016.68 1016.08 1015.48 1015.24 1015.00 1014.80 1014.44 1014.12 1013.44 1012.92 1012.76 1012.48 1012.16 1011.92 1011.60 1010.92 1010.24 1010.24 1010.48 1010.64 1010.84 1011.28 1011.60 1011.68 1011.80 1012.04 1012.44 1012.60 1012.92 1013.20 1013.56 1014.00 1014.36
1019.08 1018.12 1017.60 1018.36 1018.56 1018.68 1019.68 1019.88 1019.36 1019.08 1018.68 1018.40 1018.56 1018.16 1018.68 1018.72 1020.64 1020.72 1019.24 1021.40 1021.08 1020.00 1018.80 1019.12 1019.04 1018.60 1018.48 1018.40 1017.96 1017.56 1017.52 1016.80 1016.20 1015.84 1015.64 1015.36 1015.12 1014.68 1014.28 1014.00 1013.64 1013.12 1013.00 1013.20 1013.08 1012.68 1012.32 1011.44 1010.60 1010.60 1010.80 1011.48 1011.88 1011.92 1011.96 1012.20 1012.32 1012.36 1012.68 1012.92 1013.36 1013.76 1014.12
1020.56 1020.56 1019.92 1019.92 1020.48 1020.96 1020.52 1019.96 1019.88 1019.20 1019.08 1019.00 1018.16 1018.52 1019.00 1019.00 1020.24 1020.28 1019.52 1020.56 1020.56 1019.76 1019.32 1019.80 1019.88 1019.64 1019.44 1019.12 1018.68 1018.12 1017.88 1017.52 1017.00 1016.60 1016.28 1015.96 1015.64 1015.48 1015.12 1014.64 1014.12 1014.40 1014.48 1014.00 1013.64 1013.48 1013.08 1012.64 1012.32 1011.56 1010.88 1010.88 1011.72 1012.56 1012.52 1012.36 1012.60 1012.56 1012.68 1012.76 1013.12 1013.52 1013.84
1019.84 1021.28 1021.60 1020.92 1021.00 1020.96 1021.20 1020.76 1020.36 1020.00 1019.48 1019.24 1019.16 1019.28 1019.68 1020.24 1020.12 1019.96 1020.00 1020.28 1020.92 1020.80 1020.16 1020.44 1020.60 1020.40 1020.48 1020.08 1019.44 1019.00 1018.48 1017.96 1017.44 1017.16 1016.92 1016.80 1016.48 1016.04 1015.76 1015.56 1015.28 1014.76 1014.60 1014.68 1014.52 1014.12 1013.80 1013.44 1013.00 1012.68 1012.40 1011.84 1011.28 1011.52 1011.64 1011.56 1011.68 1011.96 1012.28 1012.60 1012.88 1013.24 1013.52
1020.96 1020.80 1020.92 1020.88 1020.88 1021.24 1020.96 1021.16 1020.68 1020.20 1019.88 1019.92 1019.40 1019.24 1020.20 1019.52 1019.88 1020.28 1019.96 1020.92 1020.36 1021.36 1020.52 1020.52 1020.76 1020.72 1020.68 1020.44 1020.04 1019.48 1018.88 1018.48 1018.20 1017.76 1017.60 1017.16 1016.88 1016.60 1016.12 1015.76 1015.72 1015.80 1015.60 1015.24 1015.00 1014.72 1014.32 1014.04 1013.60 1013.28 1012.96 1012.80 1012.60 1012.08 1011.56 1011.20 1011.24 1011.52 1011.80 1012.20 1012.60 1012.96 1013.24
1021.16 1021.12 1020.96 1020.96 1020.80 1020.88 1020.92 1020.88 1020.64 1020.48 1020.16 1019.96 1020.04 1019.64 1019.60 1019.56 1019.88 1019.80 1019.44 1020.44 1020.44 1021.32 1020.84 1020.48 1020.76 1020.60 1020.72 1020.64 1020.40 1019.92 1019.36 1018.88 1018.48 1018.32 1018.04 1017.68 1017.44 1017.16 1016.92 1016.80 1016.60 1016.32 1016.04 1015.84 1015.60 1015.24 1014.92 1014.44 1014.16 1013.88 1013.56 1013.32 1012.96 1012.60 1012.40 1011.96 1011.20 1011.20 1011.32 1011.80 1012.24 1012.56 1012.88
1021.20 1021.20 1021.12 1021.04 1021.04 1021.12 1020.96 1020.64 1020.20 1020.04 1020.08 1019.72 1019.76 1019.92 1019.80 1019.84 1019.60 1019.08 1019.08 1019.60 1021.04 1021.36 1021.00 1020.48 1020.52 1020.40 1020.40 1020.48 1020.24 1020.08 1019.76 1019.40 1019.12 1018.88 1018.56 1018.32 1018.08 1017.80 1017.56 1017.24 1016.96 1016.84 1016.64 1016.28 1016.04 1015.76 1015.36 1015.00 1014.72 1014.40 1014.16 1013.92 1013.64 1013.44 1013.08 1012.72 1012.40 1011.48 1011.16 1011.56 1011.88 1012.16 1012.48
1021.68 1021.52 1021.60 1021.28 1021.20 1021.16 1020.72 1020.24 1020.48 1020.32 1020.48 1020.56 1020.48 1020.40 1019.96 1019.96 1020.16 1019.76 1019.52 1019.88 1020.88 1020.88 1020.72 1020.56 1020.24 1020.32 1020.44 1020.52 1020.60 1020.60 1020.40 1019.96 1019.64 1019.28 1019.12 1018.80 1018.48 1018.24 1017.96 1017.56 1017.20 1017.04 1016.80 1016.52 1016.36 1016.08 1015.76 1015.44 1015.16 1014.96 1014.76 1014.40 1014.08 1013.72 1013.40 1013.16 1012.84 1012.52 1011.92 1011.40 1011.44 1011.68 1011.88
1021.84 1021.92 1021.72 1021.32 1021.08 1021.36 1021.48 1020.92 1020.52 1020.28 1020.28 1020.16 1019.92 1020.00 1020.08 1020.16 1020.24 1020.44 1020.12 1020.04 1020.48 1020.84 1020.80 1020.56 1020.56 1020.60 1020.92 1021.04 1020.96 1020.88 1020.72 1020.48 1020.08 1019.88 1019.64 1019.20 1018.80 1018.48 1018.16 1017.84 1017.52 1017.32 1017.04 1016.80 1016.72 1016.60 1016.20 1015.76 1015.44 1015.20 1014.92 1014.68 1014.48 1014.20 1013.72 1013.36 1013.08 1012.60 1012.44 1011.96 1011.28 1011.16 1011.16
1021.92 1021.84 1022.24 1021.16 1021.24 1020.96 1021.12 1021.28 1020.80 1020.64 1020.28 1020.40 1019.84 1019.96 1020.36 1020.68 1020.52 1020.28 1020.28 1019.88 1021.08 1021.20 1021.00 1020.88 1020.80 1020.92 1020.88 1021.12 1021.16 1021.08 1020.92 1020.64 1020.44 1020.24 1019.96 1019.52 1019.08 1018.68 1018.32 1018.08 1017.88 1017.68 1017.48 1017.20 1016.92 1016.68 1016.48 1016.12 1015.76 1015.44 1015.16 1014.92 1014.80 1014.56 1014.12 1013.64 1013.16 1012.88 1012.68 1012.40 1011.80 1011.16 1010.96
1021.64 1021.88 1021.32 1021.40 1020.84 1021.16 1021.00 1020.96 1020.88 1020.60 1020.88 1020.72 1020.92 1020.44 1020.16 1021.04 1020.52 1020.08 1020.28 1020.48 1020.92 1021.08 1021.00 1021.08 1020.88 1020.92 1020.84 1020.84 1020.88 1020.76 1020.80 1020.76 1020.60 1020.28 1020.00 1019.72 1019.44 1018.92 1018.52 1018.28 1018.00 1017.76 1017.56 1017.32 1017.00 1016.84 1016.68 1016.36 1016.04 1015.64 1015.36 1015.20 1014.96 1014.64 1014.32 1013.80 1013.40 1013.12 1012.96 1012.60 1012.24 1011.52 1010.92
1021.88 1021.88 1020.88 1020.56 1020.80 1020.92 1021.36 1020.44 1020.60 1020.76 1020.52 1020.16 1020.24 1019.88 1020.32 1020.84 1020.80 1020.68 1020.72 1021.12 1021.40 1021.32 1021.24 1021.12 1021.08 1020.84 1020.64 1020.44 1020.64 1020.60 1020.48 1020.44 1020.48 1020.40 1020.20 1019.92 1019.64 1019.28 1018.84 1018.52 1018.12 1017.92 1017.64 1017.36 1017.16 1016.84 1016.52 1016.32 1016.08 1015.72 1015.44 1015.20 1014.96 1014.68 1014.40 1014.00 1013.52 1013.28 1013.04 1012.84 1012.44 1011.92 1011.24
1021.92 1021.84 1021.56 1020.72 1021.80 1021.64 1021.12 1021.12 1021.24 1020.92 1020.40 1020.88 1020.60 1020.52 1020.04 1020.80 1021.12 1021.04 1020.92 1021.32 1021.28 1021.16 1021.12 1021.12 1021.00 1020.92 1020.48 1020.28 1020.44 1020.44 1020.40 1020.32 1020.32 1020.28 1020.24 1020.04 1019.72 1019.48 1019.08 1018.76 1018.48 1018.20 1017.84 1017.56 1017.32 1017.00 1016.52 1016.28 1016.16 1015.92 1015.68 1015.36 1015.16 1015.00 1014.64 1014.20 1013.76 1013.44 1013.24 1013.04 1012.68 1012.28 1011.92
1021.84 1022.96 1023.00 1021.56 1022.24 1021.36 1021.32 1021.28 1021.80 1021.88 1021.72 1021.76 1021.60 1021.44 1020.44 1021.48 1021.44 1021.56 1021.36 1021.40 1021.48 1021.28 1021.24 1021.12 1020.92 1020.44 1020.32 1020.48 1020.32 1020.16 1020.24 1020.20 1020.16 1020.12 1020.08 1019.92 1019.72 1019.48 1019.08 1018.76 1018.52 1018.24 1017.88 1017.56 1017.24 1016.92 1016.56 1016.36 1016.24 1016.00 1015.68 1015.40 1015.28 1015.04 1014.84 1014.48 1014.00 1013.76 1013.44 1013.24 1012.96 1012.68 1012.44
1022.12 1022.24 1022.68 1022.56 1022.20 1022.32 1021.88 1022.32 1021.60 1022.04 1021.68 1021.76 1021.72 1021.92 1021.12 1022.28 1022.08 1022.20 1021.68 1021.68 1021.84 1021.40 1021.24 1021.08 1020.92 1020.20 1019.68 1019.64 1020.12 1020.08 1019.92 1019.88 1019.88 1019.88 1019.80 1019.64 1019.52 1019.32 1019.04 1018.72 1018.48 1018.16 1017.92 1017.52 1017.16 1016.92 1016.68 1016.36 1016.20 1016.04 1015.72 1015.44 1015.32 1015.24 1015.04 1014.72 1014.20 1013.72 1013.52 1013.36 1013.12 1012.96 1012.72
1022.40 1022.68 1022.84 1023.20 1022.60 1021.36 1021.96 1021.56 1021.40 1021.16 1022.24 1021.72 1021.88 1021.80 1021.56 1022.20 1022.72 1022.48 1021.96 1021.76 1021.88 1021.76 1021.44 1021.20 1020.88 1020.60 1020.76 1020.56 1020.08 1020.08 1020.04 1019.84 1019.76 1019.64 1019.48 1019.48 1019.40 1019.24 1019.04 1018.80 1018.48 1018.16 1017.92 1017.64 1017.28 1016.96 1016.76 1016.52 1016.12 1015.92 1015.72 1015.44 1015.24 1015.28 1015.16 1014.92 1014.44 1014.00 1013.60 1013.40 1013.32 1013.16 1012.84
1022.72 1022.64 1023.52 1022.84 1022.56 1022.04 1020.84 1021.08 1021.36 1021.32 1021.64 1021.76 1021.20 1021.80 1021.24 1022.64 1022.36 1022.60 1022.04 1021.84 1022.20 1022.00 1021.84 1021.72 1021.56 1021.48 1021.52 1020.96 1020.56 1020.40 1020.28 1020.08 1019.92 1019.72 1019.40 1019.20 1019.04 1019.00 1018.88 1018.72 1018.48 1018.20 1017.84 1017.52 1017.32 1017.12 1016.76 1016.44 1016.08 1015.80 1015.68 1015.52 1015.36 1015.24 1015.20 1014.96 1014.68 1014.32 1013.92 1013.60 1013.40 1013.20 1012.84
1022.52 1022.64 1023.52 1023.56 1022.76 1021.32 1020.84 1020.68 1021.36 1021.20 1021.36 1020.80 1022.32 1022.20 1021.32 1022.72 1022.56 1022.60 1022.48 1022.20 1022.28 1022.28 1022.36 1022.16 1022.44 1021.56 1021.24 1021.16 1020.88 1020.56 1020.40 1020.20 1019.80 1019.68 1019.60 1019.32 1019.08 1018.84 1018.64 1018.52 1018.36 1018.16 1017.92 1017.72 1017.40 1017.08 1016.76 1016.40 1016.08 1015.84 1015.68 1015.60 1015.48 1015.32 1015.16 1015.04 1014.84 1014.40 1013.96 1013.56 1013.28 1013.16 1012.84
1024.16 1023.76 1024.20 1023.84 1022.64 1020.60 1020.36 1021.00 1020.76 1020.92 1020.96 1022.24 1021.64 1021.48 1023.20 1023.04 1022.32 1022.12 1022.12 1022.20 1022.16 1022.52 1022.52 1022.52 1022.36 1021.80 1021.36 1021.08 1020.88 1020.80 1020.60 1020.40 1020.08 1019.84 1019.56 1019.24 1019.04 1018.84 1018.60 1018.40 1018.20 1018.04 1017.88 1017.68 1017.40 1017.08 1016.76 1016.36 1016.04 1015.80 1015.72 1015.68 1015.52 1015.32 1015.16 1015.08 1014.68 1014.16 1013.80 1013.52 1013.16 1012.88 1012.68
1025.24 1024.68 1024.92 1024.68 1023.44 1020.16 1020.76 1020.64 1021.00 1020.96 1021.12 1020.52 1021.84 1022.44 1022.84 1022.52 1021.96 1022.08 1022.08 1022.24 1022.08 1022.12 1022.32 1022.20 1022.20 1021.92 1021.64 1021.28 1020.96 1020.84 1020.72 1020.52 1020.20 1019.88 1019.64 1019.44 1019.16 1018.84 1018.56 1018.08 1017.96 1017.96 1017.68 1017.56 1017.44 1017.24 1016.80 1016.40 1015.96 1015.80 1015.76 1015.68 1015.48 1015.28 1015.12 1014.72 1014.36 1014.12 1013.80 1013.48 1013.12 1012.80 1012.56
1022.48 1025.16 1025.08 1022.32 1019.68 1020.12 1020.72 1020.20 1020.24 1020.72 1020.20 1020.80 1021.48 1021.44 1021.64 1021.96 1021.88 1021.80 1022.00 1022.12 1022.00 1021.96 1022.20 1022.08 1022.00 1022.00 1021.84 1021.48 1021.16 1020.80 1020.56 1020.40 1020.24 1019.92 1019.64 1019.48 1019.16 1018.92 1018.68 1018.48 1018.08 1017.88 1017.68 1017.28 1017.12 1017.00 1016.88 1016.48 1016.04 1015.80 1015.76 1015.68 1015.48 1015.28 1014.92 1014.36 1014.08 1013.84 1013.64 1013.36 1012.92 1012.64 1012.40
1021.36 1021.04 1020.96 1020.60 1021.24 1020.84 1020.56 1020.48 1019.72 1020.00 1020.00 1020.64 1020.96 1021.12 1021.04 1021.56 1021.72 1021.64 1021.88 1021.80 1021.80 1021.92 1021.96 1022.00 1022.04 1021.96 1021.72 1021.52 1021.16 1020.92 1020.52 1020.44 1020.28 1020.04 1019.68 1019.40 1019.28 1019.00 1018.72 1018.40 1018.12 1017.92 1017.64 1017.16 1016.76 1016.48 1016.44 1016.32 1016.04 1015.88 1015.80 1015.68 1015.24 1015.04 1014.56 1014.20 1013.92 1013.64 1013.40 1013.16 1012.64 1012.36 1012.28
1021.80 1021.84 1021.08 1020.96 1021.32 1021.32 1020.64 1021.00 1020.56 1020.32 1020.24 1020.40 1020.96 1020.84 1021.00 1021.16 1021.12 1021.36 1021.56 1021.60 1021.68 1021.64 1021.72 1021.92 1021.92 1021.80 1021.44 1021.44 1021.20 1020.96 1020.60 1020.32 1019.96 1019.84 1019.56 1019.32 1019.08 1018.88 1018.64 1018.32 1018.16 1017.88 1017.52 1017.08 1016.68 1016.28 1015.88 1016.04 1015.92 1015.76 1015.60 1015.40 1015.16 1014.64 1014.20 1014.00 1013.84 1013.64 1013.28 1012.76 1012.44 1012.28 1012.16
1021.24 1020.00 1020.72 1021.56 1020.76 1020.76 1020.92 1020.60 1020.76 1020.96 1020.80 1020.48 1020.48 1020.68 1020.88 1020.68 1020.88 1021.08 1021.28 1021.44 1021.52 1021.52 1021.48 1021.56 1021.44 1021.28 1021.28 1021.20 1020.96 1020.80 1020.52 1020.12 1019.88 1019.68 1019.52 1019.28 1019.00 1018.76 1018.52 1018.24 1018.04 1017.80 1017.64 1017.24 1016.68 1016.24 1015.68 1015.48 1015.80 1015.52 1015.28 1014.92 1014.60 1014.28 1014.08 1013.84 1013.80 1013.72 1013.48 1013.04 1012.52 1012.28 1012.24
1021.24 1019.40 1019.32 1019.88 1020.80 1020.96 1020.96 1020.80 1020.28 1020.28 1020.20 1020.24 1020.56 1020.44 1020.32 1020.36 1020.56 1020.88 1020.88 1021.24 1021.48 1021.52 1021.56 1021.28 1021.16 1020.96 1020.88 1020.92 1020.72 1020.64 1020.24 1019.92 1019.60 1019.40 1019.28 1019.08 1018.84 1018.52 1018.36 1018.08 1018.00 1017.80 1017.60 1017.32 1016.80 1016.20 1015.64 1015.00 1015.28 1015.20 1014.88 1014.48 1014.12 1013.88 1013.76 1013.68 1013.60 1013.60 1013.52 1013.20 1012.92 1012.52 1012.12
1021.24 1020.92 1020.36 1020.28 1020.80 1020.52 1020.12 1020.12 1020.44 1020.32 1020.04 1020.00 1020.04 1020.24 1020.36 1020.52 1020.60 1020.64 1021.00 1021.24 1021.04 1021.16 1021.04 1020.96 1021.04 1021.00 1020.72 1020.56 1020.40 1020.24 1019.92 1019.64 1019.40 1019.16 1019.00 1018.80 1018.60 1018.36 1018.12 1017.92 1017.80 1017.60 1017.36 1017.08 1016.68 1016.20 1015.36 1014.88 1014.84 1014.76 1014.48 1014.08 1013.76 1013.64 1013.56 1013.44 1013.32 1013.20 1012.96 1012.72 1012.44 1012.16 1011.88
1021.40 1020.08 1018.52 1019.20 1019.60 1018.72 1018.28 1019.24 1019.24 1019.36 1019.68 1020.28 1020.08 1020.12 1020.48 1020.32 1020.32 1020.36 1020.48 1020.60 1020.84 1020.92 1020.84 1020.80 1020.84 1020.80 1020.40 1020.20 1020.00 1019.84 1019.56 1019.32 1019.04 1018.76 1018.56 1018.40 1018.24 1018.04 1017.80 1017.60 1017.36 1017.24 1017.04 1016.80 1016.44 1015.96 1015.20 1014.72 1014.56 1014.32 1014.04 1013.68 1013.36 1013.24 1013.28 1013.20 1013.04 1012.80 1012.40 1012.20 1012.12 1012.00 1011.76
1019.12 1018.32 1018.28 1018.60 1018.16 1018.32 1018.20 1018.24 1018.32 1018.52 1019.08 1019.96 1019.92 1019.96 1019.80 1019.84 1020.04 1020.24 1020.40 1020.48 1020.52 1020.56 1020.52 1020.48 1020.48 1020.28 1020.12 1019.84 1019.64 1019.40 1019.12 1018.84 1018.60 1018.32 1018.12 1017.96 1017.76 1017.60 1017.40 1017.28 1016.92 1016.84 1016.64 1016.40 1016.08 1015.60 1014.92 1014.52 1014.16 1013.92 1013.60 1013.28 1013.04 1012.84 1012.80 1012.72 1012.56 1012.32 1012.12 1011.96 1011.84 1011.72 1011.44
1017.68 1017.40 1017.64 1018.56 1018.72 1018.20 1017.76 1018.16 1018.36 1018.32 1018.96 1019.48 1019.40 1019.48 1019.80 1019.76 1019.76 1019.96 1020.28 1020.44 1020.44 1020.40 1020.28 1020.08 1019.96 1019.84 1019.68 1019.44 1019.40 1019.04 1018.68 1018.44 1018.20 1017.88 1017.64 1017.48 1017.24 1017.00 1016.84 1016.72 1016.44 1016.28 1016.08 1015.88 1015.60 1015.16 1014.64 1014.16 1013.80 1013.52 1013.28 1013.00 1012.84 1012.56 1012.36 1012.24 1012.04 1011.84 1011.72 1011.68 1011.56 1011.32 1011.00
1017.40 1016.92 1017.36 1018.24 1018.12 1017.72 1017.96 1018.36 1018.52 1018.56 1019.04 1019.56 1019.24 1018.92 1018.84 1019.04 1019.44 1020.00 1020.16 1020.12 1020.16 1020.20 1020.16 1019.88 1019.56 1019.48 1019.40 1019.20 1019.08 1018.80 1018.44 1018.00 1017.72 1017.40 1016.92 1016.56 1016.24 1016.16 1015.96 1015.84 1015.76 1015.68 1015.40 1015.16 1014.92 1014.64 1014.28 1013.88 1013.52 1013.20 1012.84 1012.52 1012.44 1012.28 1012.08 1011.88 1011.64 1011.44 1011.32 1011.28 1011.08 1010.76 1010.44
Wind_Speed
1 5 2 2 1 3 3 5 5 3 1 7 5 1 1 3 6 3 1 1 5 4 4 10 11 15 17 16 17 16 15 14 13 12 12 11 8 12 13 14 14 14 13 14 15 15 14 15 15 16 16 15 16 15 14 15 14 13 14 14 14 12 11
4 6 2 3 3 1 2 2 4 1 2 4 3 3 3 3 5 2 4 3 5 5 3 11 12 16 16 16 16 14 13 15 16 12 13 11 12 11 13 14 15 15 15 15 16 15 16 17 18 17 16 15 15 15 16 16 15 15 14 13 13 12 12
8 8 3 3 5 7 3 5 0 4 2 2 2 5 1 4 3 2 2 0 2 4 5 9 13 15 15 14 13 15 18 16 13 15 15 17 14 13 11 14 14 14 15 15 16 16 16 17 17 17 16 15 14 14 15 16 18 17 17 13 13 12 12
5 5 8 6 9 10 5 2 5 3 3 2 4 2 3 5 3 4 1 4 1 3 4 8 7 9 10 12 12 13 14 13 13 12 13 14 14 14 11 11 11 13 14 16 16 16 16 16 15 14 16 14 16 16 15 15 14 13 14 15 14 13 12
4 7 6 3 6 5 8 10 7 7 3 2 1 2 3 1 5 4 6 3 2 5 5 6 6 9 10 11 11 10 10 12 12 14 14 14 15 14 15 7 8 7 9 10 11 12 12 12 12 13 14 16 16 14 15 15 15 16 15 14 13 12 11
7 4 1 2 8 9 7 4 6 3 4 3 4 2 1 2 3 3 6 4 1 5 7 8 7 8 10 10 10 9 11 13 13 12 14 15 13 17 15 16 13 2 6 5 5 7 7 8 11 13 12 13 14 15 15 15 14 14 14 14 13 12 11
2 1 3 3 2 5 10 9 6 4 1 3 3 5 2 3 2 3 4 8 2 4 6 9 9 9 10 11 11 11 11 11 13 14 16 14 16 15 15 17 13 17 11 1 6 7 6 8 9 10 12 13 13 15 15 13 15 14 14 13 13 12 12
3 3 4 3 8 2 3 7 8 7 6 3 1 1 1 4 5 3 2 5 4 2 6 9 10 10 10 9 10 12 12 11 13 15 15 17 16 16 18 14 16 14 12 14 15 8 2 6 6 9 10 8 9 11 12 13 15 15 13 12 12 12 12
2 5 3 0 2 5 4 2 6 4 4 5 1 2 2 6 2 0 3 5 3 3 4 9 10 10 12 12 12 12 12 12 12 13 14 13 15 18 17 18 16 17 18 18 14 12 12 9 1 6 7 10 11 8 9 11 12 13 12 11 12 12 11
3 3 3 3 6 5 4 1 6 6 8 10 6 2 4 5 1 2 3 3 2 1 3 9 10 11 10 11 11 11 10 11 13 13 13 12 14 14 15 18 18 16 14 14 15 15 13 12 11 8 2 8 10 8 9 9 10 10 11 11 11 12 11
5 2 1 1 0 3 3 6 5 6 4 5 3 3 5 2 1 3 2 3 0 3 8 8 9 9 10 11 11 12 12 13 12 12 12 13 12 13 15 13 12 15 18 17 15 15 13 13 13 10 11 9 4 13 13 13 12 11 11 11 11 12 12
3 3 1 1 2 1 1 3 4 5 5 4 4 3 2 2 4 1 1 3 3 4 6 8 8 6 7 8 10 11 11 11 13 13 11 13 13 15 14 17 18 15 13 14 16 15 14 14 13 12 11 10 11 7 6 11 11 12 10 12 12 12 12
1 0 0 1 2 0 2 3 3 4 3 3 2 0 2 3 1 4 2 2 2 2 5 6 6 5 6 7 8 9 8 9 11 12 14 14 15 15 16 15 14 15 15 13 14 14 14 14 15 14 12 13 11 10 10 8 8 12 11 12 12 13 12
2 2 2 1 3 1 2 3 4 5 4 5 3 3 3 4 3 4 3 1 6 2 3 5 5 4 5 4 4 5 9 11 11 12 13 14 15 15 15 14 14 12 12 14 13 13 14 15 15 15 13 12 11 11 11 9 11 5 10 11 12 13 14
0 1 3 1 0 2 3 4 4 5 4 4 4 2 3 1 1 2 4 3 3 2 2 3 4 4 3 4 7 8 7 9 12 12 12 13 14 14 13 14 14 13 13 14 14 14 14 14 15 12 12 11 10 11 10 11 9 10 9 10 13 14 14
0 2 1 3 3 1 1 3 2 2 1 1 2 1 1 1 0 2 2 2 3 1 4 1 2 4 6 7 6 7 6 9 10 10 12 13 13 14 14 14 13 15 15 14 14 14 15 14 14 14 13 13 13 12 11 11 11 10 9 9 11 14 15
1 2 2 5 2 3 3 2 1 2 3 1 2 0 4 2 2 2 2 2 1 2 2 3 4 4 4 5 5 5 6 7 8 10 11 12 13 13 14 13 13 13 13 13 13 12 11 12 13 14 13 13 12 12 12 11 10 9 11 10 9 11 13
3 2 5 1 2 0 2 1 2 2 3 3 4 5 3 3 1 2 2 2 1 2 3 4 5 5 3 3 3 4 4 5 7 9 9 10 12 12 12 12 13 11 10 10 11 11 10 11 11 12 11 12 13 12 10 10 9 10 11 12 10 9 10
1 2 4 3 0 3 1 6 4 4 4 3 5 5 2 1 2 3 3 2 1 1 1 2 4 6 5 1 4 5 6 6 6 7 7 9 11 12 12 14 14 13 13 11 12 13 12 12 11 10 12 12 12 12 11 11 10 10 11 11 11 10 6
1 3 3 1 1 3 5 6 5 5 3 2 1 3 3 2 2 2 2 1 3 4 3 3 2 6 8 3 3 4 5 6 7 7 8 8 9 11 11 12 12 14 14 13 12 12 10 11 9 10 9 11 12 12 12 10 10 10 10 10 10 11 10
1 1 2 3 2 2 5 3 3 2 1 2 1 1 4 1 2 2 1 3 4 4 4 5 7 8 4 3 4 2 6 7 6 6 5 7 7 8 10 11 12 11 12 13 13 12 11 10 10 10 10 9 10 12 12 10 10 9 9 9 10 11 10
3 1 3 4 5 1 4 4 2 2 1 2 3 4 5 3 3 2 2 2 4 6 6 7 8 7 2 3 2 4 9 9 9 6 5 5 5 7 9 9 10 11 11 12 13 12 12 12 10 10 10 11 9 10 11 10 10 10 9 9 10 10 10
3 2 2 2 2 4 5 5 4 4 2 3 2 2 5 1 2 3 2 3 3 3 4 7 8 8 6 4 4 5 10 11 9 10 9 7 6 7 7 9 11 13 12 11 13 13 12 12 11 11 10 11 11 10 11 11 10 10 10 10 11 11 11
1 3 2 3 3 1 2 6 3 4 2 2 2 5 3 3 4 4 2 2 2 3 4 4 4 2 5 7 7 6 10 10 10 9 11 12 11 9 8 7 9 11 12 12 12 13 14 13 12 12 10 9 11 11 11 11 11 10 10 10 10 12 11
2 5 2 2 4 3 3 3 3 3 3 1 1 6 2 1 4 2 0 1 2 1 3 3 4 3 4 7 9 10 9 11 12 8 7 9 10 11 10 10 10 9 9 11 12 13 11 12 13 11 10 9 9 9 10 11 11 11 11 11 10 10 11
3 3 3 4 4 6 4 2 2 1 1 1 7 3 3 3 3 2 0 1 1 0 2 2 4 6 8 9 9 9 10 10 11 11 10 10 9 9 9 11 9 9 10 10 12 13 12 13 13 11 10 9 10 9 9 9 11 11 11 11 10 11 11
2 1 1 2 3 3 3 4 2 1 2 5 2 1 3 6 3 2 1 1 3 2 3 4 6 7 8 10 11 10 9 9 10 11 11 11 12 11 12 14 11 11 11 11 10 12 12 12 12 11 12 11 10 9 10 11 9 10 12 11 10 10 12
5 4 5 6 8 3 4 4 3 3 5 4 4 4 1 3 4 3 3 3 4 3 5 6 7 6 8 8 9 10 9 8 9 10 11 11 11 11 10 10 12 12 12 12 11 10 11 11 10 11 11 10 9 10 12 11 10 10 10 11 11 11 12
5 7 8 7 3 4 3 4 2 2 4 2 3 5 4 3 4 5 3 4 4 5 6 7 7 8 6 8 8 10 11 11 10 11 12 12 12 12 12 11 11 11 12 15 15 14 11 11 10 9 10 11 12 12 10 9 11 12 12 11 11 12 12
3 5 8 4 2 3 4 3 3 4 4 3 4 5 4 5 5 5 4 4 5 5 5 6 6 6 7 8 9 10 12 12 12 10 11 12 11 11 11 11 10 10 12 14 15 16 15 10 10 9 10 10 12 11 10 9 9 11 13 13 12 12 13
1 4 2 5 9 5 6 9 6 4 4 5 5 5 5 5 5 5 5 6 5 6 5 7 9 10 8 9 10 10 11 13 12 12 12 12 12 12 13 11 10 11 11 12 15 16 19 13 9 10 11 10 10 9 9 9 8 9 10 12 13 13 14
5 8 4 4 2 4 3 4 5 5 7 6 6 7 6 5 4 4 6 4 5 4 6 7 9 10 10 10 11 10 11 12 12 12 11 11 11 11 11 11 10 11 11 13 15 16 17 16 10 10 11 11 11 10 9 8 8 8 9 10 11 12 15
6 7 10 10 5 8 9 8 7 8 7 7 7 7 6 5 6 6 5 5 6 4 7 7 8 10 11 11 12 12 12 12 12 12 11 11 11 12 12 11 10 12 11 13 14 16 18 16 13 11 11 11 10 11 10 8 8 9 9 10 11 13 14
4 7 8 4 1 5 5 5 10 10 10 8 8 6 4 6 7 7 6 6 5 6 7 7 8 10 11 12 12 14 13 13 14 14 13 12 12 12 12 12 12 12 12 13 14 14 17 15 13 13 12 11 11 10 10 9 9 10 10 10 10 12 12
7 9 10 7 6 4 7 6 6 7 5 5 6 8 8 8 7 6 5 6 6 6 7 6 8 11 12 14 13 14 13 13 13 14 14 13 12 12 12 13 14 13 13 12 13 15 16 14 13 13 12 11 11 11 10 10 9 9 9 9 9 11 12
10 7 5 7 6 8 6 6 6 6 6 6 8 8 7 7 8 6 5 5 6 8 8 9 9 11 12 12 12 15 15 15 15 16 14 14 14 14 13 13 14 14 14 13 13 15 14 14 14 13 13 12 10 11 11 10 10 9 9 9 10 11 11
10 8 5 7 8 9 5 2 4 4 3 5 5 7 8 7 7 5 5 6 6 7 9 10 11 11 12 13 13 15 15 16 15 16 18 18 17 15 13 12 12 12 12 11 11 11 13 14 14 14 14 13 10 11 11 11 10 9 9 10 11 12 12
Wind_Direction
12 360 316 20 122 145 207 108 176 194 132 102 93 67 43 99 73 177 266 348 344 307 318 12 14 19 20 18 18 19 14 8 12 7 355 334 266 210 202 203 205 206 202 196 195 191 189 189 187 190 190 187 185 183 185 189 191 188 189 191 193 194 193
321 352 262 202 61 174 89 125 219 292 125 118 120 157 338 71 140 208 36 42 336 34 203 351 1 20 16 15 12 12 16 16 14 0 352 336 320 277 216 204 203 200 198 197 198 195 192 190 189 188 189 187 186 185 184 186 188 188 191 192 194 193 191
280 325 38 6 344 26 100 155 74 132 142 202 307 103 144 138 159 139 63 8 66 43 317 338 9 13 3 4 4 11 16 15 10 4 351 350 339 323 242 211 201 198 197 197 196 198 195 191 190 188 186 184 185 187 187 188 189 189 188 190 194 194 193
302 18 34 26 318 326 27 26 33 1 95 106 118 193 177 118 194 100 235 47 17 339 333 332 8 22 5 359 4 13 13 11 12 7 2 356 351 340 307 229 208 202 201 198 196 196 193 190 188 189 185 184 187 187 186 190 191 191 190 193 191 192 194
41 25 6 38 346 357 350 29 5 4 357 251 75 29 62 180 162 177 137 52 14 325 333 346 21 27 10 6 1 3 9 13 12 14 12 5 3 352 344 313 214 208 208 203 204 200 196 189 187 187 186 188 188 185 189 187 186 188 192 195 193 195 190
46 135 282 68 55 54 62 62 63 301 357 49 108 157 4 61 93 185 121 141 57 340 4 360 18 38 15 6 2 354 11 16 15 15 18 16 9 6 1 2 2 231 184 202 198 190 190 189 188 190 190 189 186 188 190 188 188 191 190 192 194 193 192
117 164 41 21 35 60 74 59 28 346 95 95 81 135 233 36 19 85 124 113 90 0 1 12 15 34 22 10 358 358 1 9 15 18 17 19 21 15 13 13 15 12 4 49 159 169 186 192 190 190 189 196 193 193 190 189 188 192 191 191 192 191 192
309 280 239 33 24 32 6 24 18 16 22 322 190 173 168 109 348 59 4 67 157 13 28 23 18 26 27 17 8 360 3 3 13 17 19 21 18 17 20 22 23 18 20 19 15 2 189 183 185 191 193 188 204 198 196 192 194 194 191 192 190 191 194
348 329 349 356 340 40 48 12 342 349 346 14 101 101 34 79 337 217 111 141 149 34 30 46 28 28 27 16 11 8 4 2 8 12 15 18 23 24 21 25 23 25 27 23 17 14 8 357 303 179 189 172 202 208 202 199 203 197 194 191 190 194 192
138 188 235 265 322 343 315 11 341 353 18 4 15 32 351 86 252 93 101 134 224 270 42 50 39 30 22 12 10 10 11 4 9 7 9 9 20 21 24 22 24 27 25 22 22 19 13 9 2 354 243 183 150 183 209 206 206 201 200 192 193 193 194
161 188 196 280 275 354 32 325 355 341 352 9 72 105 72 86 236 99 192 111 107 57 45 45 42 36 28 14 7 11 10 8 9 10 11 16 13 18 21 20 21 24 23 19 18 17 13 12 8 8 9 356 192 185 200 196 200 198 195 194 194 195 196
159 176 147 269 340 64 309 359 321 333 352 6 51 80 149 166 74 345 185 142 74 53 42 45 43 38 34 20 9 7 10 10 10 6 5 13 18 18 19 22 20 18 15 15 14 11 12 13 10 13 11 12 4 343 232 203 195 195 192 194 193 197 196
37 125 286 23 39 336 289 293 293 304 309 347 37 205 172 120 138 191 241 165 104 61 27 50 63 48 54 34 12 7 1 9 10 7 12 14 18 15 17 17 16 13 12 8 5 6 7 10 13 11 10 8 2 359 4 338 228 197 193 191 196 196 199
45 8 22 40 58 319 320 271 262 254 274 264 235 244 214 174 213 225 233 103 116 94 355 41 68 82 70 55 21 5 15 15 11 14 13 17 17 16 13 12 13 9 6 6 1 360 5 8 8 7 4 5 1 2 356 348 347 283 196 197 195 198 202
360 307 345 5 264 220 290 281 274 283 288 300 274 255 289 195 278 264 230 156 146 132 2 19 46 79 77 63 39 28 15 13 16 15 12 11 12 10 10 10 9 5 4 5 1 360 1 6 5 360 357 352 355 357 353 352 340 337 313 215 198 200 204
332 296 315 289 274 278 242 307 337 318 319 327 339 110 286 120 173 16 62 127 181 282 348 359 46 75 63 52 38 30 17 16 17 18 14 7 4 6 8 6 6 5 2 1 360 358 355 357 359 1 353 351 350 349 348 346 340 330 328 304 224 206 205
245 254 278 277 339 56 31 8 346 345 359 344 320 280 76 82 152 101 162 234 185 245 328 4 10 46 74 73 48 36 23 18 16 17 12 5 0 1 360 359 2 3 357 356 352 353 352 352 355 353 350 347 343 342 339 340 331 341 336 326 297 229 210
237 291 295 288 57 23 234 254 332 54 36 10 360 311 332 32 49 178 173 168 167 349 1 27 339 353 8 97 107 76 52 24 20 11 6 2 357 353 354 355 354 353 353 352 349 348 344 348 353 346 349 347 336 327 329 333 342 349 342 332 323 285 223
269 304 347 55 55 216 266 290 273 289 276 213 240 267 267 112 39 85 67 50 33 297 293 313 325 308 296 131 89 58 39 39 30 9 360 358 354 349 347 351 351 347 344 342 344 344 345 350 343 344 349 346 340 333 336 334 345 350 347 336 330 327 269
32 40 27 91 244 241 282 296 331 323 69 4 41 324 285 139 109 134 119 29 328 336 333 328 268 280 292 250 119 77 59 43 17 10 360 348 345 344 342 343 343 344 339 337 336 333 334 339 340 346 342 343 341 337 331 330 340 345 341 338 337 342 342
180 160 127 208 307 340 344 8 353 33 85 343 83 222 288 28 71 61 76 356 356 346 336 334 329 318 278 235 223 68 29 20 19 6 346 337 332 328 330 333 335 334 334 331 328 324 331 334 340 339 339 340 342 337 336 334 333 337 333 338 344 343 340
121 132 3 358 30 274 273 250 257 220 219 185 185 103 283 12 28 14 83 15 357 348 343 351 342 323 40 358 310 338 354 355 345 346 327 318 318 324 322 322 325 330 333 330 325 329 325 331 336 336 334 339 341 337 335 332 332 333 338 338 340 336 330
52 64 117 196 154 242 203 220 239 262 223 242 175 106 272 136 346 349 84 56 2 1 346 341 357 11 2 269 278 320 341 334 340 330 326 323 320 318 320 327 327 331 331 326 328 323 325 327 334 332 334 336 339 340 335 331 332 330 334 335 334 327 322
131 131 115 244 207 224 250 218 243 259 274 229 71 345 305 29 345 331 14 21 11 338 335 352 9 29 313 301 303 334 326 320 319 321 319 320 322 319 320 320 323 326 323 327 326 327 326 328 327 328 330 336 333 335 332 330 329 324 324 326 319 314 309
201 180 239 300 296 271 230 216 221 259 237 68 166 222 134 215 284 274 181 307 304 5 351 351 327 245 253 286 300 313 313 315 315 308 301 301 306 313 319 319 327 318 325 323 320 322 319 320 325 324 328 326 326 325 325 325 318 314 314 314 313 310 304
154 163 168 243 258 234 184 228 208 237 80 200 216 208 168 206 240 270 226 56 292 200 259 252 246 271 286 292 295 299 303 302 300 304 308 306 301 302 301 310 315 319 318 318 317 316 316 317 320 322 319 318 316 316 317 309 308 310 311 309 311 311 307
65 62 125 358 323 275 135 158 73 167 154 226 183 191 220 198 207 201 242 200 272 264 286 261 257 269 282 288 294 294 295 295 295 303 309 308 311 311 317 316 318 320 314 313 311 312 312 313 315 315 315 308 309 311 308 304 307 307 305 306 307 311 304
149 167 175 200 212 212 208 133 167 217 210 175 175 151 233 210 199 199 208 220 224 247 248 275 278 269 272 280 283 290 289 284 290 294 295 298 297 302 297 294 304 311 308 306 304 304 305 303 305 308 307 301 298 300 299 305 308 303 302 304 306 311 305
151 193 213 236 242 213 226 186 192 213 237 191 181 173 191 184 238 206 181 237 247 237 248 259 267 282 265 265 277 288 291 292 291 288 290 291 294 296 298 297 301 304 303 304 306 303 303 301 297 297 295 291 294 293 293 307 309 311 307 304 310 310 303
268 251 210 192 274 265 264 270 236 242 260 260 171 182 215 225 209 185 201 217 233 256 248 264 263 255 274 281 281 279 283 286 283 281 281 283 286 285 288 291 295 296 299 299 299 301 300 299 294 289 289 287 285 284 294 299 302 306 305 306 308 306 301
63 269 345 180 223 223 229 237 246 242 231 228 193 203 214 233 222 225 226 221 223 232 251 252 267 275 274 278 277 275 282 282 281 279 276 276 279 283 285 285 292 295 297 296 296 299 298 298 295 289 285 284 280 282 283 288 291 291 292 295 299 300 293
174 237 232 242 241 230 238 215 214 235 242 242 226 217 216 218 225 217 235 217 237 224 240 248 260 274 281 282 281 281 278 279 282 280 277 277 277 275 274 280 282 281 283 285 288 292 292 295 296 288 286 285 285 285 281 281 281 279 278 277 280 285 287
265 314 278 255 260 269 250 231 229 232 239 251 258 238 235 236 247 252 246 213 233 221 242 248 260 273 279 278 280 281 279 279 279 279 277 273 270 273 277 276 272 273 276 278 281 284 283 288 292 288 283 282 283 281 280 281 282 281 278 278 282 284 284
261 224 244 129 163 273 285 239 226 229 231 221 237 251 259 252 250 252 259 266 235 230 243 253 260 271 277 279 282 279 278 276 277 279 277 273 269 268 267 273 271 268 267 270 276 276 279 285 287 285 282 281 280 279 279 277 279 280 285 287 285 280 279
236 237 231 188 192 235 237 218 222 216 208 187 214 229 236 247 246 244 247 264 283 277 268 254 265 272 275 279 280 280 278 276 275 275 275 276 273 269 269 270 270 267 266 262 265 270 275 280 280 281 282 282 283 282 281 278 275 274 279 281 279 279 277
242 244 230 174 172 211 242 222 216 222 206 189 217 232 233 238 244 239 230 234 257 276 279 282 273 274 280 278 278 278 280 280 279 278 274 271 268 269 266 262 264 266 265 264 261 265 272 276 278 282 281 280 278 278 278 278 276 275 275 278 279 277 275
225 228 206 184 201 229 238 214 213 222 218 187 203 231 237 243 249 222 224 248 245 257 277 285 285 283 281 281 277 275 277 278 276 277 277 276 275 271 266 258 256 258 260 257 258 263 269 275 277 278 278 277 275 274 275 276 274 274 275 275 277 276 273